Wind_Speed
23 22 21 20 20 19 20 20 20 19 19 19 19 19 20 20 19 18 20 22 22 23 24 25 26 27 27 26 22 17 13 13 9 5 4 5 9 11 10 11 12 16 20 22 23 25 28 28 27 25 23 21 20 19 19 20 19 17 17 16 13 10 10 10 11 13 12 10 9 10 10 9 12 13 13 14 13 13 13 13 14 15 16 18 19 19 19 19
25 23 22 21 21 20 20 20 20 20 19 19 19 19 19 20 19 18 18 20 21 21 23 24 25 25 26 26 23 17 12 11 9 5 3 3 6 10 10 12 16 19 21 22 22 23 25 25 25 23 21 20 18 16 15 15 15 14 13 11 9 9 10 9 9 10 11 9 7 9 11 12 13 13 13 14 14 14 13 13 15 16 18 18 19 20 21 21
25 25 24 23 22 21 21 20 20 19 19 18 18 18 18 19 19 18 17 19 20 21 21 23 23 24 25 25 23 18 13 9 9 6 4 3 5 8 11 16 20 21 20 20 19 19 19 20 21 19 19 18 16 14 12 11 11 11 9 7 9 9 9 9 6 6 8 8 8 10 13 12 11 12 13 14 14 12 12 14 17 18 20 21 21 22 22 22
25 25 25 24 23 22 21 21 20 19 19 19 18 17 18 18 18 18 17 17 19 20 20 21 22 23 23 24 23 19 14 9 8 7 5 5 6 9 12 17 19 18 17 16 16 15 14 15 15 13 14 13 12 11 10 8 9 9 7 5 5 5 6 7 5 4 6 7 8 11 13 13 11 12 13 14 14 14 16 18 20 21 22 22 22 23 23 23
26 25 24 24 23 22 22 21 21 20 19 19 18 17 17 17 17 17 17 16 18 19 19 20 21 22 22 23 23 19 14 10 7 8 6 6 8 10 12 16 16 14 14 14 14 13 13 13 12 11 11 10 9 9 7 7 8 8 7 4 2 3 5 6 6 6 7 9 10 12 15 15 14 14 15 17 18 19 20 21 22 23 22 23 23 23 23 24
28 27 25 24 24 23 23 22 21 21 20 19 19 17 17 17 16 16 16 16 16 18 19 19 20 21 21 21 22 20 15 10 7 8 7 7 9 10 13 14 13 11 11 12 12 11 11 10 10 10 10 9 7 6 3 4 7 7 6 6 5 6 7 7 7 8 10 11 11 14 16 17 16 15 16 18 20 21 22 22 23 22 23 23 24 24 24 25
30 28 27 26 25 25 25 23 22 21 21 20 19 18 17 17 16 15 15 16 15 17 18 18 19 20 20 20 21 20 16 11 7 8 8 7 9 10 12 12 11 9 8 7 8 8 8 7 7 9 9 7 4 3 3 4 5 6 6 7 8 9 9 9 9 10 12 12 12 14 17 18 18 17 17 17 19 22 23 24 24 24 24 25 26 26 26 27
32 30 29 28 27 26 26 25 24 22 21 21 20 19 18 17 17 16 15 15 15 16 17 17 18 18 19 19 20 20 16 12 7 7 9 7 8 9 11 11 9 7 5 4 6 6 6 6 6 6 7 5 2 3 4 6 6 6 7 8 9 10 11 12 13 13 14 15 16 18 19 20 21 21 20 20 21 23 24 24 25 26 27 27 27 26 26 26
33 32 31 30 29 28 27 26 25 24 22 21 21 20 19 18 17 16 15 14 14 15 16 16 16 17 18 18 18 19 17 12 8 5 10 8 7 8 11 10 7 4 4 5 6 5 5 6 6 5 3 2 2 4 5 6 7 9 11 11 10 10 11 13 14 15 16 18 20 22 22 21 22 24 24 25 26 26 26 26 27 27 27 26 24 23 22 20
34 33 33 32 31 29 29 27 26 25 24 22 21 21 20 19 19 18 16 14 14 14 15 16 15 16 16 17 17 17 16 12 9 4 9 11 8 8 11 10 6 5 5 6 6 5 4 4 4 4 2 1 1 3 4 4 4 6 8 8 7 8 9 11 11 12 14 16 19 21 21 21 22 24 25 26 27 27 27 26 26 24 23 20 18 16 13 12
34 34 34 34 33 31 30 30 28 27 26 24 22 22 21 20 19 19 17 15 14 14 15 15 14 14 14 15 15 15 15 12 8 3 6 12 11 9 9 9 7 6 5 5 6 4 3 3 4 5 4 2 2 2 1 4 4 3 2 4 6 7 8 9 10 11 12 12 13 15 18 19 20 21 23 23 24 24 23 21 19 16 13 11 9 7 7 7
33 34 34 35 35 33 32 31 30 28 27 25 24 22 22 21 20 20 19 17 14 14 15 15 14 13 13 14 14 14 14 10 6 1 4 11 13 11 8 8 8 7 6 5 5 4 4 5 5 6 5 5 5 6 4 5 6 6 6 8 9 10 11 11 12 11 10 8 8 9 11 14 16 17 17 17 17 15 13 10 7 5 5 5 5 6 6 7
35 34 35 35 35 35 34 33 32 31 28 26 25 24 23 22 21 20 20 18 16 15 15 15 13 13 13 12 13 13 12 9 5 4 5 10 13 12 9 8 9 9 8 6 5 5 6 6 6 5 5 5 5 6 6 5 6 6 9 9 10 10 10 11 9 5 2 3 3 3 5 6 7 8 9 8 6 4 2 3 5 7 8 8 9 10 9 9
40 36 35 35 36 35 35 35 34 33 31 28 26 25 24 23 22 21 21 20 18 16 16 16 13 12 12 12 12 12 11 9 5 8 7 8 12 12 10 9 9 10 10 8 7 7 6 6 6 5 5 5 3 5 6 5 5 6 9 9 8 8 8 6 2 5 8 7 6 3 3 2 2 2 2 2 4 6 8 10 12 12 13 12 13 14 13 12
45 41 36 35 36 37 36 35 35 35 33 31 28 27 26 25 23 22 22 22 20 18 17 17 14 12 12 12 11 11 10 8 3 7 8 7 8 10 10 10 9 10 11 10 8 8 6 6 5 4 3 2 0 2 4 5 6 7 9 9 8 7 6 2 5 8 9 7 5 5 6 6 6 7 9 10 11 11 12 13 14 14 15 15 15 16 15 14
48 45 40 36 36 37 37 36 36 37 36 33 31 28 27 26 25 24 23 23 22 20 18 18 15 13 12 12 12 11 9 7 4 4 8 7 6 7 8 9 10 10 12 10 7 6 5 4 2 0 1 2 3 2 4 6 6 7 9 9 7 6 4 1 5 5 5 5 5 7 8 9 10 12 13 14 15 15 16 17 17 17 16 17 17 17 16 15
50 48 44 39 36 37 38 38 37 37 37 36 33 30 29 28 26 26 25 24 24 22 19 19 17 15 13 12 13 12 10 8 5 3 7 9 7 5 5 6 8 10 11 10 7 5 3 2 2 4 3 1 2 2 3 5 5 6 8 9 6 5 4 3 4 3 3 4 7 9 11 12 13 15 16 16 18 19 19 20 20 20 19 18 18 18 18 17
53 51 47 42 38 37 38 39 38 37 38 37 36 33 31 29 28 28 28 26 25 23 21 21 20 17 15 14 14 13 11 9 7 5 5 10 11 8 7 6 6 7 8 8 7 5 4 3 3 4 3 1 3 3 3 4 5 4 6 8 6 6 5 5 5 3 4 7 10 12 13 13 15 17 18 17 18 19 20 20 21 21 21 20 20 20 20 20
55 53 50 45 41 38 38 39 39 38 38 38 38 36 34 31 29 30 30 28 26 24 23 24 23 19 17 15 15 14 12 11 10 7 5 9 13 12 10 10 10 9 7 7 8 7 8 7 4 3 2 1 3 4 4 4 4 2 4 7 6 6 7 7 7 7 8 10 12 13 13 14 16 19 19 19 19 20 20 20 21 21 21 21 22 22 22 22
57 56 52 47 43 39 38 39 39 40 39 39 39 37 36 33 30 32 33 30 28 26 25 26 25 21 20 17 16 16 14 13 12 10 7 7 13 15 12 12 14 11 10 9 8 8 8 7 5 4 3 3 4 5 5 4 1 2 3 5 6 6 7 7 8 9 11 12 13 14 14 15 18 19 20 20 22 22 20 20 21 22 22 23 23 23 22 23
60 59 56 50 45 41 39 39 40 40 40 39 39 38 37 36 33 33 35 32 30 29 27 28 27 25 23 20 17 17 16 15 13 12 10 7 10 15 14 15 16 12 10 11 8 7 9 7 6 5 3 4 5 4 3 1 3 4 4 5 6 7 6 6 8 11 14 15 15 15 15 16 18 18 19 21 23 23 22 22 23 23 23 23 23 22 22 23
62 62 60 54 47 43 39 39 40 41 40 39 39 39 40 40 36 34 36 35 33 31 29 29 29 27 25 23 20 18 18 18 15 13 12 9 9 13 16 17 16 12 9 10 8 7 10 10 8 5 1 3 4 2 2 1 4 3 4 6 7 7 6 7 11 15 16 15 14 15 15 15 16 17 19 21 23 23 23 23 24 24 23 22 22 21 22 23
63 64 63 58 51 46 41 39 39 41 41 39 40 42 43 43 40 35 36 37 36 34 33 31 31 29 28 25 22 20 20 20 17 15 14 12 10 12 17 19 17 14 13 13 11 8 11 12 10 7 4 4 2 1 2 1 4 4 6 7 7 8 8 9 13 14 14 14 13 14 14 14 15 17 18 19 22 22 22 22 23 24 23 22 21 22 22 22
65 66 65 62 55 49 44 40 39 40 41 40 41 44 46 45 42 36 35 38 39 37 35 34 33 33 31 25 24 23 21 21 20 17 16 15 13 12 16 20 20 18 16 16 15 13 13 13 11 10 7 5 2 2 1 2 4 4 6 8 8 8 9 9 11 12 12 12 12 13 13 13 15 16 17 18 20 20 20 21 22 23 22 22 22 22 22 22
66 67 67 65 60 53 47 42 39 39 41 42 43 45 47 46 43 39 36 38 42 40 37 37 36 36 32 27 27 25 22 23 22 19 18 18 16 13 15 19 21 21 20 18 17 17 17 15 13 12 10 7 4 3 3 4 4 3 5 6 6 5 7 8 10 11 11 11 12 13 13 13 14 15 15 16 18 18 20 21 20 20 21 23 24 23 21 21
68 69 68 66 63 57 50 44 39 38 40 42 45 46 47 46 43 42 39 38 44 44 39 39 40 38 35 31 28 26 26 25 23 22 22 20 17 15 15 16 18 21 22 20 19 21 20 17 15 11 10 9 5 3 5 6 5 4 4 4 4 4 6 9 10 10 10 10 11 11 12 13 13 13 13 14 16 17 18 18 16 16 18 21 22 22 21 20
69 71 69 67 65 60 54 47 41 38 39 42 46 46 47 47 44 43 41 39 44 46 42 41 43 42 38 34 31 30 30 26 24 25 24 21 19 18 17 15 15 17 21 23 22 23 22 19 16 11 9 10 7 5 6 6 7 7 7 6 5 6 7 9 11 10 9 9 10 10 11 12 12 13 12 13 15 15 14 14 14 14 15 17 19 20 20 20
71 72 71 68 65 62 57 50 42 38 38 41 45 46 46 47 46 44 42 41 44 47 46 46 46 44 40 38 35 33 31 28 27 27 25 23 21 20 18 16 16 16 18 23 25 26 24 21 18 13 11 12 8 8 8 7 8 8 9 10 9 9 10 11 11 9 8 9 10 10 10 11 11 11 11 11 13 13 12 13 13 13 13 14 17 20 20 20
72 73 73 69 66 64 59 52 45 39 38 40 43 45 46 48 49 46 43 43 46 47 50 51 50 47 43 41 39 35 32 31 30 28 27 26 23 21 20 18 17 17 17 20 24 26 25 22 18 13 13 12 9 10 10 8 8 6 7 11 12 13 12 12 11 9 7 7 8 9 9 10 10 10 10 11 13 14 13 13 13 12 11 12 17 19 19 20
74 75 74 71 67 64 60 54 48 42 39 40 42 45 47 48 49 49 45 45 48 50 54 56 53 49 47 44 42 38 34 32 31 29 28 28 24 22 21 20 18 18 17 18 21 24 24 21 17 13 13 12 11 11 11 10 8 5 6 11 15 15 12 11 10 9 7 5 7 8 9 9 8 8 10 11 13 15 15 13 11 10 10 12 16 17 18 20
77 76 74 72 68 64 60 55 50 45 42 41 42 45 47 48 49 49 47 47 52 55 57 58 55 51 48 44 42 40 36 33 32 31 30 29 27 24 23 22 20 19 18 17 19 21 22 20 18 15 14 13 13 11 10 12 11 7 6 10 15 17 13 11 10 8 8 7 7 8 8 8 8 9 11 12 13 14 12 11 10 9 10 13 15 16 17 19
78 77 75 72 69 65 60 54 51 47 44 42 42 43 46 48 48 49 50 51 55 57 57 58 56 51 48 44 42 42 40 36 34 33 32 30 29 27 25 23 21 20 18 16 18 20 20 20 19 17 17 16 14 11 11 14 13 9 7 9 15 18 15 12 10 7 8 8 8 8 7 7 8 9 11 12 12 11 10 11 11 10 10 13 15 16 16 17
80 78 75 72 70 66 60 54 50 48 45 43 42 42 44 47 48 49 52 54 57 58 57 59 58 53 50 48 45 45 43 39 36 36 34 32 31 30 27 24 23 21 18 17 18 18 18 18 18 18 19 17 15 12 12 13 12 10 9 10 16 18 15 12 9 6 7 8 7 7 6 5 7 10 10 11 11 11 10 10 10 10 11 13 14 15 15 15
81 79 76 73 70 66 60 54 49 46 45 44 43 43 43 46 49 52 55 57 59 61 58 59 61 57 54 53 51 49 47 42 39 37 35 34 33 32 29 27 25 22 20 20 19 18 18 18 18 19 19 18 15 13 13 13 11 11 12 13 17 18 16 13 11 7 7 7 6 6 5 5 9 11 12 11 11 10 9 9 9 11 12 12 13 14 13 13
82 79 76 73 71 66 60 54 49 45 44 44 44 44 44 47 51 54 57 59 62 63 59 58 62 60 57 57 56 52 50 47 42 40 37 36 35 34 33 30 27 24 22 22 21 20 19 18 18 19 19 18 15 14 15 15 12 13 16 17 19 18 14 12 10 8 7 7 7 7 5 7 12 14 14 13 11 10 9 8 10 12 13 13 13 13 13 13
83 80 77 74 71 66 60 54 49 45 43 43 44 45 46 49 52 56 59 61 63 65 62 59 63 64 61 60 59 55 53 51 48 44 41 39 38 36 35 32 28 26 25 24 22 22 20 19 19 21 21 18 15 15 18 18 16 15 17 18 18 16 12 9 8 6 7 8 9 8 5 9 15 15 14 13 10 9 9 9 11 13 14 13 12 13 13 12
83 81 77 74 70 66 60 54 49 45 43 43 44 46 48 50 54 58 61 63 65 67 66 62 64 68 65 62 61 58 55 53 51 47 43 41 40 39 38 35 31 30 28 26 25 23 23 22 22 23 22 18 17 19 23 22 19 18 17 17 17 15 13 11 9 7 8 10 10 9 7 11 15 16 14 12 10 9 9 9 12 14 14 13 13 13 13 10
84 81 77 75 71 66 61 55 50 45 43 43 44 47 50 53 57 60 62 64 66 68 67 63 64 69 68 64 62 60 57 55 52 48 43 40 41 42 42 40 37 34 32 29 27 26 25 26 26 25 24 20 19 23 25 24 22 20 18 17 17 15 14 14 12 10 10 12 12 11 10 12 15 15 14 12 11 11 11 11 12 12 13 12 12 13 11 8
85 81 78 75 72 66 61 55 50 46 43 43 45 47 51 54 58 60 62 64 65 66 66 64 64 68 70 67 64 63 60 56 53 49 45 43 45 48 48 46 43 40 37 33 30 27 27 28 29 28 27 24 23 26 27 27 25 21 18 17 16 16 15 14 13 11 12 12 13 14 12 13 15 15 14 14 14 14 14 13 13 12 11 11 11 12 10 8
86 81 78 76 72 67 61 54 50 46 43 43 45 47 51 55 59 62 62 61 62 64 65 65 64 67 71 69 66 65 62 57 55 53 49 48 51 51 49 47 45 42 39 36 33 31 29 30 31 31 30 27 27 28 27 28 27 23 20 16 15 16 17 15 13 12 13 12 13 15 14 14 17 16 15 16 16 16 16 16 15 13 11 10 10 11 11 10
86 82 79 76 73 67 60 54 49 46 44 43 44 47 51 56 60 62 61 59 61 63 65 66 64 66 72 71 68 66 64 59 57 56 52 51 52 49 46 44 42 40 37 35 34 33 32 31 32 33 33 31 30 30 29 29 27 25 22 19 17 17 17 17 15 14 15 15 14 16 15 16 19 18 16 16 16 16 17 16 16 15 13 10 9 9 10 10
87 84 80 77 72 66 59 53 47 45 43 42 44 47 52 57 60 61 61 61 62 63 65 65 65 68 73 73 70 68 66 62 60 58 55 52 51 48 45 43 42 41 38 35 34 34 34 33 33 33 34 34 33 32 32 31 28 26 24 21 19 19 19 19 18 17 17 17 16 16 17 19 22 20 17 16 16 16 16 15 16 16 15 12 10 8 8 8
86 85 82 77 71 63 57 52 47 43 41 41 43 47 52 56 59 60 61 61 62 64 66 66 67 70 74 76 73 70 69 65 63 61 57 53 51 50 47 45 44 43 40 36 36 36 35 34 33 32 33 34 35 36 35 33 31 29 26 23 21 21 21 21 20 19 18 18 18 18 19 22 24 22 18 16 16 15 15 14 15 15 15 14 13 12 9 7
86 85 82 77 70 61 53 49 46 42 40 40 42 45 50 54 57 58 59 59 60 64 66 68 69 71 76 79 77 73 71 68 65 63 60 56 53 53 52 49 46 44 41 39 38 37 35 34 34 34 33 34 35 35 34 33 33 31 28 25 24 24 23 22 21 20 19 19 18 19 21 23 24 23 20 18 17 16 15 14 14 14 14 15 15 14 12 9
87 86 82 75 68 59 52 47 44 41 39 39 40 43 47 51 53 54 55 57 59 64 67 69 71 73 77 81 80 76 74 71 68 67 64 59 55 55 56 52 48 45 42 42 40 38 38 37 36 35 35 35 36 35 34 34 34 34 32 29 27 26 25 23 22 21 21 21 19 19 22 24 24 23 21 19 19 17 15 14 14 13 13 14 15 15 14 13
88 86 82 74 65 57 51 45 41 39 38 37 38 40 44 48 50 51 53 56 59 63 68 70 72 75 79 83 83 80 76 74 71 69 66 63 59 57 58 55 49 46 45 44 43 42 41 40 38 38 38 38 40 39 37 36 36 36 34 32 30 28 27 25 24 23 24 23 21 20 22 24 25 25 23 21 20 19 17 16 14 13 13 14 15 15 15 15
88 86 82 74 64 55 49 44 39 37 37 37 37 39 41 45 47 48 52 57 60 64 68 71 74 77 81 85 86 83 79 76 74 72 69 66 63 59 58 57 52 48 48 48 46 46 45 42 40 39 39 40 41 40 38 37 37 36 35 33 32 31 31 29 28 28 27 25 23 22 21 22 25 26 25 22 21 21 19 16 14 13 13 14 15 15 16 16
87 85 80 72 63 54 47 42 38 36 36 36 36 37 39 41 43 46 51 57 61 64 68 72 76 80 83 86 88 85 82 79 76 74 71 69 66 61 59 58 54 51 51 51 50 49 47 44 42 41 40 41 41 40 39 39 39 39 37 35 34 34 34 33 32 31 29 26 25 23 22 22 23 25 26 23 21 22 21 18 16 15 14 15 15 15 16 17
87 83 77 69 61 54 47 41 37 35 34 34 34 36 37 38 40 44 50 57 61 65 69 73 77 82 85 87 89 87 84 81 77 76 75 71 69 65 60 59 57 54 54 54 53 51 48 44 43 43 42 42 41 41 41 40 40 40 39 38 37 36 36 35 34 32 30 28 26 24 23 23 22 24 26 24 22 22 22 20 19 17 16 16 16 16 16 17
86 81 74 66 59 53 48 42 37 33 32 32 33 34 36 37 39 43 49 56 62 65 70 74 79 84 87 88 90 88 86 84 80 79 78 74 71 68 62 59 59 58 57 55 54 54 51 45 45 46 45 44 43 42 41 40 39 38 37 39 39 38 37 36 34 32 30 30 29 26 24 24 23 24 26 25 23 23 23 22 21 20 18 18 18 18 17 17
85 79 71 63 56 52 47 42 37 31 30 31 33 34 35 37 39 43 48 56 63 67 71 76 80 85 89 90 91 91 88 86 83 81 81 77 74 71 66 62 61 61 60 57 55 56 55 49 48 49 47 45 44 42 40 38 37 37 37 38 39 40 38 36 34 32 30 30 30 28 26 25 24 23 24 24 24 24 23 22 21 20 18 19 19 20 18 17
83 76 68 60 54 50 46 42 37 32 29 30 32 33 35 37 39 43 48 55 63 68 73 77 80 85 90 91 92 93 91 88 85 84 83 81 78 75 69 65 64 62 61 58 56 56 56 53 52 51 48 46 45 42 40 40 40 39 38 38 39 39 36 35 35 33 31 29 29 28 27 25 23 23 23 23 23 23 23 22 20 19 19 20 21 21 19 17
Wind_Direction
310 309 309 309 307 304 300 296 295 299 305 310 314 320 323 327 335 343 347 344 346 350 354 359 0 2 5 5 4 10 29 38 36 42 34 38 70 82 81 73 81 94 95 97 99 104 107 107 107 106 108 112 118 125 131 135 134 133 134 131 130 133 141 148 155 159 158 165 182 192 197 209 216 224 241 247 254 263 266 269 266 265 263 258 257 260 264 266
311 309 307 306 306 305 302 298 293 292 296 302 307 313 318 322 328 336 343 344 342 345 350 355 359 0 4 6 4 5 16 37 42 44 35 32 89 95 87 87 95 100 100 101 103 107 110 108 107 107 108 108 110 113 119 128 129 126 128 130 135 145 153 157 162 171 169 168 190 215 221 225 226 234 247 249 255 261 265 269 268 265 263 261 261 262 265 269
309 310 308 305 303 303 302 300 296 291 289 294 300 306 312 317 322 328 337 342 340 341 345 350 357 359 2 5 5 4 5 28 48 56 61 63 120 119 106 108 107 104 102 102 104 107 113 113 111 113 111 107 106 108 112 117 125 128 133 142 146 152 162 171 175 188 193 191 206 227 229 228 234 243 248 249 252 260 269 273 271 268 265 263 262 263 266 270
303 305 307 305 302 300 300 300 298 294 288 286 291 298 304 310 317 322 329 338 338 337 340 345 353 358 0 4 6 5 2 14 48 69 81 84 127 139 124 123 118 111 106 102 102 105 114 118 119 122 116 112 114 120 127 135 140 133 132 145 152 166 177 186 198 221 234 227 221 228 230 225 229 240 246 251 257 268 275 275 274 272 269 267 266 268 269 271
299 299 301 303 302 299 297 297 297 296 290 284 284 289 295 301 309 316 322 331 336 335 335 340 347 354 359 2 5 5 3 5 40 74 97 104 127 148 138 132 126 118 112 108 106 107 115 119 122 129 122 119 123 123 135 159 157 147 152 170 217 252 232 217 220 231 241 242 236 237 241 239 240 245 250 259 266 272 274 274 274 272 270 270 272 274 275 277
295 296 296 297 298 297 295 293 293 294 292 286 282 282 286 292 299 308 317 323 330 333 331 335 341 350 356 359 3 5 5 3 28 74 100 120 133 152 149 140 132 120 117 115 111 109 116 120 123 135 133 126 125 126 147 168 162 166 182 200 225 249 253 245 243 247 241 243 246 245 248 249 248 250 254 261 266 269 271 273 274 274 274 275 276 278 279 281
291 292 293 293 293 294 293 291 289 290 290 288 283 279 278 283 289 297 309 316 322 329 328 329 335 344 352 356 0 3 6 4 17 74 97 127 144 156 157 150 144 133 126 120 116 117 122 127 128 137 140 128 123 152 208 207 190 201 220 232 238 238 246 253 257 258 251 250 255 253 253 252 248 251 256 260 264 267 269 273 276 279 280 280 281 282 282 283
290 289 289 289 289 290 290 290 287 285 285 286 284 279 275 275 280 286 298 308 313 322 325 325 328 337 346 353 357 1 5 6 7 72 99 123 148 162 168 159 154 150 153 152 136 131 128 128 126 129 134 126 141 200 222 236 237 246 257 260 258 251 247 252 257 259 259 257 256 258 259 259 256 258 260 262 266 269 271 275 279 281 283 283 283 283 283 283
291 286 285 286 286 287 287 287 286 283 280 281 282 280 274 271 272 277 285 297 305 312 319 320 322 329 340 348 353 358 4 9 3 60 105 117 137 160 173 165 154 162 176 171 151 139 134 133 133 130 132 139 206 225 233 245 256 264 269 270 268 266 263 264 266 267 268 264 261 261 263 263 262 262 263 265 268 271 274 277 280 282 284 283 283 284 285 287
297 289 284 281 282 284 284 284 283 282 279 276 277 278 275 270 267 270 275 286 296 302 310 314 317 322 333 343 349 355 2 12 7 30 107 115 126 151 172 167 150 161 172 166 163 158 141 143 144 125 118 133 232 245 233 226 248 262 264 270 273 273 273 272 273 275 275 271 267 265 265 264 263 263 264 266 270 273 276 278 280 281 282 285 288 293 298 302
304 295 287 281 279 279 280 281 281 280 278 274 272 273 273 270 265 264 267 274 286 292 299 306 312 315 323 335 343 351 359 15 17 10 114 120 123 137 165 172 163 169 169 158 164 168 149 156 139 111 113 115 63 28 156 141 98 58 0 335 323 308 295 291 287 284 281 277 274 268 263 261 260 260 262 265 269 272 275 277 279 281 287 297 309 321 330 332
316 303 293 285 280 276 276 277 278 277 277 274 269 267 268 269 265 261 261 265 275 282 288 296 305 309 313 326 336 343 355 15 36 39 136 129 129 134 150 166 170 165 150 146 147 147 154 150 121 98 102 107 81 65 87 104 83 54 19 354 336 322 312 311 303 291 283 275 270 261 252 251 254 258 261 265 268 271 275 281 291 313 340 357 9 9 3 2
329 314 300 290 282 276 273 273 274 274 274 273 268 264 263 264 264 260 258 258 265 272 278 284 295 302 303 314 327 334 346 10 62 122 136 130 132 139 151 161 167 157 141 145 139 130 140 126 101 84 89 104 91 70 72 69 55 27 3 346 331 329 329 326 318 297 242 195 189 209 232 243 256 259 259 262 265 276 323 31 46 48 43 43 39 27 22 22
336 325 310 297 287 279 273 270 271 271 270 270 267 262 259 259 261 260 256 254 256 263 270 274 282 293 294 299 315 323 335 359 75 133 135 125 127 135 152 161 164 159 148 145 137 127 125 106 90 90 102 112 94 61 59 49 27 1 355 354 348 353 351 346 28 116 123 127 127 108 78 57 38 74 103 101 89 79 76 70 65 60 52 47 40 33 32 28
338 331 319 305 292 283 275 269 267 268 268 268 266 262 257 255 256 257 255 251 250 254 262 266 271 281 285 286 297 309 322 344 49 145 147 134 129 133 146 152 155 160 160 159 148 134 126 112 94 89 110 138 204 43 36 13 358 353 5 19 22 17 6 25 125 126 125 123 108 76 61 61 71 85 89 89 86 82 78 70 61 58 52 45 42 40 38 31
339 334 326 313 299 288 279 271 265 265 266 265 264 262 257 252 252 254 254 250 246 247 253 260 262 268 275 275 279 293 305 320 335 174 170 159 146 143 146 148 151 160 165 168 166 153 141 129 116 154 212 222 250 308 2 357 352 358 17 32 39 34 26 142 160 146 132 118 87 69 71 83 91 91 91 90 85 80 75 65 57 57 54 49 47 46 43 40
339 336 330 319 305 292 283 275 267 263 263 263 262 260 258 252 248 250 250 249 245 242 247 254 254 256 263 264 265 278 290 296 308 262 203 193 184 177 178 166 161 164 166 172 175 171 163 152 210 231 229 235 277 300 333 347 353 4 19 32 52 61 62 138 167 163 124 88 74 78 86 93 93 90 91 90 84 77 70 64 60 59 56 52 51 50 49 51
339 337 332 323 311 298 286 278 270 263 260 260 259 258 257 252 246 247 247 247 245 240 241 247 247 248 253 256 257 263 275 282 284 283 234 212 207 206 211 212 193 171 168 179 181 188 206 199 197 216 221 340 331 314 315 340 352 7 21 32 63 86 85 109 133 137 104 83 82 87 90 91 92 91 92 89 83 76 69 65 61 57 55 55 57 57 56 58
339 337 333 326 316 303 290 281 273 266 259 257 258 257 256 252 245 244 244 243 243 239 237 241 241 242 247 250 252 254 259 270 270 266 251 221 213 208 209 222 214 182 170 189 189 197 217 218 205 204 214 268 301 295 291 318 338 5 29 41 72 99 95 93 103 103 95 91 89 87 86 90 94 92 90 88 84 78 72 66 61 59 60 63 65 64 64 65
338 337 335 329 320 308 294 283 275 268 261 256 255 255 255 251 244 242 242 240 240 238 235 238 238 237 241 242 245 248 250 257 262 259 253 230 214 209 210 221 217 194 184 196 198 208 221 227 234 240 260 276 274 274 277 299 0 105 70 55 77 106 103 89 92 95 92 93 90 85 85 94 97 93 89 86 82 78 75 71 69 70 71 71 71 70 70 70
337 337 336 331 324 313 299 286 276 270 263 256 253 253 253 250 244 240 240 237 236 237 234 236 235 233 236 239 240 243 244 248 255 258 254 241 221 215 211 216 222 214 197 193 198 223 225 221 237 245 265 285 285 276 265 330 85 99 66 63 88 110 115 97 94 99 96 93 88 83 86 96 101 96 88 82 79 79 79 79 80 79 76 74 73 72 72 73
336 336 335 332 327 318 305 290 278 270 265 259 253 251 250 249 245 239 238 236 234 235 234 234 233 232 233 235 236 237 240 241 246 253 253 248 232 221 212 211 227 236 220 206 195 212 222 215 218 216 199 283 295 300 224 111 80 73 57 78 101 111 123 112 103 102 99 94 88 83 87 97 102 97 87 81 80 82 84 85 85 82 76 74 73 72 73 74
334 335 334 332 329 322 310 296 282 271 265 260 254 250 247 247 246 240 237 236 233 232 233 233 231 230 229 230 233 234 235 238 240 244 247 245 236 226 216 213 226 237 234 228 211 202 217 217 214 204 204 260 272 93 226 169 96 80 73 87 104 113 120 112 104 102 98 95 90 84 88 97 101 96 90 86 84 86 90 91 88 82 75 71 71 72 73 74
332 333 333 331 329 324 315 301 286 274 266 259 253 249 247 246 245 241 235 235 234 230 231 233 230 227 224 224 231 232 231 234 236 237 242 243 234 226 221 218 225 231 233 234 227 220 219 218 222 217 222 243 209 143 222 170 133 107 88 89 97 113 123 114 105 104 103 97 90 87 90 97 101 97 94 92 90 90 95 97 91 84 76 72 72 73 74 76
330 331 331 330 328 325 318 306 291 277 266 259 254 249 247 245 243 240 234 233 234 229 228 232 232 227 221 219 227 230 229 231 231 233 239 243 237 228 223 222 226 231 234 232 233 236 230 225 230 229 233 237 203 187 200 173 164 138 117 106 96 117 136 129 118 112 111 104 94 91 93 99 104 101 98 99 98 97 100 100 93 86 81 78 74 72 74 77
328 330 330 328 326 324 319 309 295 279 267 260 254 249 246 244 241 240 235 231 233 230 225 230 233 227 218 216 223 228 228 228 227 228 233 238 240 236 230 228 229 232 232 229 233 243 242 240 241 239 239 226 194 205 213 194 187 165 163 153 113 133 151 141 134 125 120 111 99 96 98 104 110 109 106 106 110 110 105 102 96 89 88 82 73 70 72 75
327 328 329 327 325 322 318 310 298 282 269 261 255 250 246 242 239 238 235 230 232 230 225 228 231 227 218 214 218 225 228 226 224 225 228 232 237 238 236 236 237 236 231 227 232 242 247 248 246 248 239 215 196 213 213 194 188 186 203 202 152 149 161 146 135 128 122 111 99 98 104 111 115 117 117 112 118 122 113 107 103 96 95 86 74 70 71 74
326 327 327 326 323 320 317 310 300 285 270 261 257 252 246 241 237 236 234 229 229 228 226 226 228 226 220 213 213 221 226 224 223 223 225 227 231 236 237 238 241 243 234 228 231 239 244 245 243 247 233 212 207 219 212 196 197 203 214 206 172 160 162 148 137 132 126 111 97 96 103 114 121 124 125 120 125 130 120 112 110 105 103 90 77 74 75 78
325 326 326 324 322 319 315 310 301 288 273 262 257 252 246 241 236 233 231 231 228 226 226 226 224 223 221 214 211 216 221 223 224 222 222 224 227 233 236 236 240 244 241 233 231 235 242 243 241 241 223 211 216 219 209 203 207 205 205 198 176 163 157 146 142 144 133 105 95 100 101 115 130 133 134 133 134 135 128 119 114 112 110 95 82 81 83 85
324 325 325 323 320 317 314 309 301 290 277 264 256 252 247 240 235 232 229 230 230 225 224 226 222 219 220 216 211 212 216 221 224 222 222 223 224 228 233 235 238 242 243 240 234 234 241 244 242 235 220 217 224 218 210 209 208 197 189 189 177 166 159 147 142 152 153 118 104 111 103 112 132 140 144 145 142 139 135 128 121 117 113 99 90 90 93 92
324 324 324 322 319 315 312 307 299 290 279 268 257 251 247 240 234 230 226 227 230 225 221 224 222 217 218 218 214 212 213 218 221 222 222 222 222 225 230 233 235 239 241 241 238 234 238 241 238 233 224 221 221 218 221 217 211 209 200 187 177 170 171 162 142 150 167 142 117 116 107 113 129 137 146 149 146 143 138 135 128 119 114 105 101 102 101 97
323 324 322 320 317 314 310 304 298 289 279 270 260 251 246 240 233 229 224 224 229 227 221 221 222 217 216 218 218 215 214 215 218 220 220 220 220 222 225 229 233 237 239 240 236 231 231 233 229 226 224 221 219 223 231 224 217 221 210 184 176 176 184 178 148 147 173 157 134 123 112 119 135 143 149 149 150 149 146 143 136 126 121 115 113 114 109 103
323 323 321 319 316 313 309 303 296 289 279 271 262 253 245 239 233 227 224 222 227 229 221 218 219 217 215 215 217 216 214 215 216 217 218 218 219 220 222 225 229 232 236 237 231 223 222 223 220 218 217 217 220 227 229 224 221 217 200 180 176 184 197 187 156 152 171 162 150 137 122 123 142 153 157 154 154 153 148 144 136 131 132 127 124 124 118 113
322 322 320 318 315 312 308 303 296 288 279 270 262 254 245 239 232 227 223 221 224 228 223 216 216 216 215 214 214 213 213 213 213 214 216 216 217 218 220 222 223 224 229 232 227 217 214 216 214 212 210 211 217 222 219 215 209 195 187 181 178 187 197 181 158 157 165 166 162 152 147 142 146 156 161 160 158 152 144 136 129 135 142 139 134 132 126 119
321 321 319 317 314 312 309 304 296 287 277 268 260 253 245 238 232 227 223 221 222 226 224 217 213 213 215 215 213 211 211 211 210 210 214 216 216 216 218 220 220 220 223 226 225 218 212 212 211 209 208 209 215 216 207 200 191 182 184 183 179 184 189 171 156 154 161 173 177 172 175 158 152 156 160 160 159 151 145 141 139 143 148 146 140 138 131 121
321 321 319 317 314 312 309 304 296 286 276 266 258 251 243 237 232 228 224 221 221 224 224 218 212 211 213 215 214 210 210 211 210 209 212 216 216 216 217 218 218 218 219 219 220 218 212 208 208 208 207 208 211 203 192 188 181 180 185 182 178 182 184 176 172 165 164 176 185 189 184 160 157 159 160 163 161 154 152 150 147 149 152 149 143 140 136 125
320 320 319 317 315 313 309 303 295 286 275 265 256 249 242 236 232 229 225 222 221 222 222 218 212 210 211 214 213 211 209 211 212 210 212 215 215 214 215 215 214 215 215 214 214 214 210 205 204 206 204 204 205 191 183 188 187 184 188 186 182 183 184 187 188 185 180 177 185 195 177 160 163 164 164 166 161 158 162 158 149 147 149 148 143 144 144 134
320 320 319 317 316 313 309 302 295 285 275 264 254 247 240 235 232 230 226 222 220 221 222 219 213 210 210 212 213 211 210 210 211 210 211 214 216 215 213 212 210 210 210 209 210 210 208 204 202 202 198 197 200 188 182 192 194 188 189 189 187 185 187 190 185 189 196 184 184 192 177 165 169 169 168 168 165 168 174 170 159 150 148 147 146 151 154 144
321 321 320 318 316 312 308 301 294 285 274 263 253 246 240 236 233 230 228 224 220 220 221 220 215 210 209 211 212 210 210 209 209 208 207 211 216 216 213 210 208 207 205 203 204 205 206 205 201 198 193 192 194 187 186 195 197 192 192 190 187 186 189 193 188 194 205 194 186 188 178 173 176 175 174 173 174 177 178 175 169 162 157 154 151 154 155 148
321 321 320 318 315 312 307 301 294 285 274 263 253 245 240 235 232 230 228 225 221 219 219 219 215 210 209 211 211 210 209 208 207 207 206 208 214 218 217 214 211 210 207 202 201 201 204 206 202 196 192 191 192 190 193 200 199 196 198 194 189 189 192 197 196 200 206 198 187 184 180 180 182 183 183 180 180 180 177 176 176 172 171 169 161 154 153 153
321 321 320 318 315 312 307 301 293 284 274 263 253 245 239 234 232 230 228 225 220 217 217 217 214 210 208 210 212 210 208 207 207 206 206 208 214 218 220 221 220 219 216 210 206 204 204 206 204 199 194 191 192 194 198 204 202 198 200 199 193 192 196 202 205 205 203 198 191 187 185 186 186 188 190 188 185 182 176 177 181 181 183 186 180 167 162 161
321 321 319 317 315 312 307 300 292 283 273 262 252 244 237 233 231 230 227 223 218 214 214 214 212 209 207 208 211 211 208 207 207 206 205 208 212 216 217 220 222 222 221 218 214 210 207 207 206 204 199 194 193 195 198 204 205 202 203 202 195 194 201 208 208 206 202 199 198 196 192 189 188 189 194 194 190 186 181 181 186 190 192 198 204 202 193 182
321 320 319 317 315 311 306 299 291 281 271 261 251 243 237 233 230 228 226 222 216 212 211 210 209 208 205 205 209 210 207 207 207 206 205 206 210 214 215 216 218 219 219 219 220 217 214 212 209 208 205 200 198 197 198 203 206 206 207 204 199 200 207 210 208 204 200 196 199 201 197 192 189 190 195 198 198 195 190 189 194 196 195 199 209 219 222 214
321 320 319 317 314 310 305 297 289 281 270 261 251 243 238 234 230 227 225 221 216 212 209 208 206 206 204 203 206 208 206 206 207 207 206 205 208 213 214 213 215 216 216 217 221 222 220 217 212 209 208 206 204 201 199 202 206 208 210 209 205 205 209 209 206 204 201 197 200 203 198 193 194 196 198 201 204 203 200 200 203 203 200 202 209 220 229 235
321 320 318 316 313 309 303 296 288 280 270 260 253 245 239 235 231 227 224 221 216 212 209 207 204 204 203 202 204 206 205 204 205 207 206 205 207 212 214 213 211 213 213 214 217 220 220 219 214 210 207 206 206 203 199 201 205 209 212 212 207 205 206 205 204 206 206 204 206 208 203 198 200 203 202 203 206 208 208 210 211 211 210 211 215 221 231 239
321 320 317 315 312 308 303 296 288 280 271 261 253 245 240 235 231 226 223 220 216 212 209 206 203 202 203 201 202 205 204 203 204 206 206 206 206 210 214 213 210 209 210 212 214 216 219 219 216 211 207 205 206 205 203 203 205 209 212 211 206 203 205 206 206 208 210 210 212 214 209 205 206 208 206 205 207 210 214 216 218 220 221 222 223 227 233 239
320 319 317 314 311 307 302 296 288 279 271 263 254 246 239 235 229 223 220 219 215 211 210 206 202 201 202 201 201 203 203 202 203 205 206 206 206 208 212 213 209 208 208 209 211 213 216 218 217 214 211 209 209 208 209 209 208 210 213 211 207 207 209 209 210 211 213 214 216 218 214 209 211 212 211 210 210 213 218 221 224 231 235 235 233 233 237 242
320 319 316 313 310 306 301 295 287 278 270 263 255 247 240 234 229 222 218 217 214 210 209 207 203 201 202 201 201 202 202 201 202 204 205 206 205 206 210 212 209 207 207 207 209 212 214 215 216 216 215 215 212 210 211 212 211 212 213 212 211 213 214 214 215 216 216 215 218 222 220 214 212 213 215 214 211 214 220 224 228 237 245 248 246 243 243 246
319 318 315 312 308 304 300 293 285 277 270 264 257 250 242 234 228 221 216 216 214 210 208 207 203 201 201 201 200 201 201 200 201 202 204 205 205 204 207 210 209 208 208 207 207 211 213 214 214 215 217 217 215 212 212 212 211 213 212 212 214 217 219 220 221 222 220 217 218 224 225 221 215 215 217 216 212 215 224 228 231 237 246 253 253 251 250 252
318 317 314 310 306 302 298 293 286 278 271 265 257 250 242 233 225 220 215 214 213 210 207 206 204 201 200 201 200 200 201 200 200 201 203 204 204 203 204 207 208 208 209 208 208 210 212 213 213 215 217 217 216 216 217 216 216 216 215 215 216 220 222 223 225 226 224 220 220 225 228 225 220 218 220 218 214 217 226 232 236 239 244 250 252 251 251 254
317 315 312 308 304 300 296 292 287 279 270 262 255 248 242 234 225 219 215 212 212 210 207 206 204 201 200 200 200 200 201 200 199 200 202 203 204 203 202 204 206 207 209 208 207 210 212 212 213 215 217 218 219 219 219 219 220 219 217 217 218 221 223 225 227 228 226 222 222 225 228 228 223 221 223 223 219 219 225 232 238 242 245 249 252 251 248 249
316 314 310 306 302 298 294 291 286 280 270 261 254 248 242 235 227 221 216 212 211 210 207 205 204 201 200 200 200 199 200 200 200 200 201 203 204 203 202 203 204 206 208 207 207 210 212 211 212 215 216 218 220 219 217 217 219 218 217 217 219 220 221 223 227 228 226 225 224 225 228 229 227 225 227 227 224 222 225 232 240 246 250 254 257 255 249 247
Height
10776 10775 10774 10773 10772 10771 10770 10769 10769 10769 10768 10767 10766 10765 10764 10763 10761 10760 10758 10755 10753 10751 10748 10746 10743 10741 10738 10735 10733 10731 10728 10726 10725 10723 10722 10721 10720 10718 10717 10716 10715 10714 10713 10712 10712 10712 10711 10712 10712 10713 10714 10714 10714 10715 10715 10714 10714 10715 10717 10718 10719 10721 10722 10723 10724 10724 10726 10726 10727 10728 10729 10729 10730 10730 10731 10731 10731 10731 10731 10730 10730 10731 10731 10731 10730 10730 10729 10729
10774 10773 10772 10771 10770 10769 10768 10767 10767 10767 10766 10765 10765 10764 10763 10761 10760 10759 10757 10755 10753 10751 10749 10746 10744 10742 10739 10736 10733 10731 10729 10727 10725 10724 10723 10722 10721 10720 10719 10718 10717 10716 10715 10715 10715 10715 10715 10715 10715 10716 10716 10717 10717 10717 10717 10717 10717 10718 10719 10720 10721 10721 10722 10723 10724 10724 10725 10726 10727 10728 10728 10729 10729 10729 10729 10729 10730 10729 10729 10729 10729 10729 10729 10729 10728 10728 10727 10727
10772 10771 10770 10769 10768 10767 10766 10765 10765 10764 10764 10763 10763 10762 10761 10760 10759 10758 10757 10755 10753 10751 10749 10746 10744 10742 10740 10737 10734 10732 10730 10727 10725 10724 10723 10723 10722 10721 10720 10719 10719 10718 10718 10717 10718 10718 10718 10717 10717 10718 10718 10718 10718 10719 10719 10719 10719 10719 10720 10721 10722 10722 10723 10723 10724 10724 10725 10725 10726 10727 10727 10727 10728 10728 10728 10728 10728 10727 10727 10727 10727 10727 10727 10727 10726 10726 10725 10724
10769 10769 10768 10767 10766 10765 10764 10763 10763 10762 10762 10761 10761 10760 10760 10759 10758 10757 10756 10754 10752 10750 10748 10746 10744 10742 10740 10738 10735 10732 10730 10728 10726 10724 10724 10723 10723 10723 10722 10721 10720 10720 10720 10719 10720 10720 10720 10719 10719 10720 10720 10719 10719 10720 10720 10720 10720 10720 10721 10721 10722 10723 10723 10724 10724 10723 10724 10724 10725 10726 10726 10726 10726 10726 10726 10726 10726 10726 10726 10726 10726 10725 10725 10724 10724 10723 10722 10722
10767 10766 10765 10764 10764 10763 10762 10761 10761 10760 10760 10759 10759 10758 10758 10757 10757 10756 10755 10754 10752 10750 10748 10746 10744 10742 10740 10738 10736 10733 10731 10729 10727 10725 10724 10724 10724 10724 10723 10723 10722 10722 10721 10721 10721 10721 10721 10721 10720 10721 10721 10720 10721 10720 10721 10721 10721 10721 10721 10722 10722 10722 10723 10723 10724 10724 10724 10724 10723 10724 10724 10724 10724 10724 10724 10724 10724 10724 10724 10724 10724 10723 10722 10722 10721 10720 10720 10719
10764 10763 10763 10762 10761 10760 10760 10759 10758 10758 10757 10757 10757 10756 10756 10755 10755 10754 10754 10753 10751 10749 10747 10746 10744 10742 10740 10738 10736 10733 10731 10729 10727 10725 10725 10724 10724 10725 10724 10724 10724 10723 10723 10722 10722 10722 10722 10722 10721 10722 10721 10721 10722 10721 10721 10722 10722 10721 10721 10722 10722 10722 10722 10723 10723 10723 10724 10723 10723 10722 10722 10722 10722 10722 10722 10722 10722 10723 10723 10722 10722 10721 10720 10719 10719 10718 10717 10716
10761 10761 10760 10759 10758 10757 10757 10757 10756 10756 10755 10755 10754 10754 10754 10754 10753 10753 10752 10751 10750 10749 10747 10745 10744 10742 10740 10738 10736 10734 10731 10730 10728 10726 10725 10725 10725 10725 10725 10725 10725 10724 10724 10723 10722 10722 10722 10722 10722 10722 10722 10722 10722 10722 10722 10722 10722 10722 10722 10722 10722 10722 10722 10722 10722 10722 10722 10722 10722 10722 10722 10721 10721 10721 10721 10721 10721 10721 10721 10720 10719 10719 10718 10717 10716 10715 10715 10714
10758 10758 10757 10756 10755 10754 10754 10754 10753 10753 10753 10752 10752 10752 10752 10752 10751 10751 10751 10750 10749 10748 10746 10745 10743 10742 10740 10738 10736 10734 10732 10730 10728 10726 10725 10725 10725 10726 10726 10725 10725 10725 10724 10724 10723 10723 10723 10723 10723 10723 10723 10723 10723 10723 10723 10722 10723 10722 10722 10722 10722 10721 10721 10722 10721 10721 10721 10720 10721 10721 10721 10721 10720 10720 10720 10720 10720 10719 10719 10718 10717 10716 10715 10714 10713 10712 10712 10711
10755 10754 10753 10753 10752 10751 10751 10750 10750 10750 10750 10750 10750 10749 10749 10749 10749 10749 10749 10748 10748 10747 10745 10744 10743 10741 10739 10738 10736 10734 10732 10730 10729 10727 10725 10726 10725 10726 10726 10726 10725 10725 10725 10724 10724 10724 10723 10723 10724 10723 10723 10723 10724 10723 10722 10722 10722 10722 10721 10721 10721 10721 10720 10720 10720 10719 10718 10718 10718 10719 10719 10719 10719 10718 10718 10718 10718 10717 10716 10715 10714 10714 10713 10712 10711 10710 10709 10708
10751 10750 10750 10749 10749 10748 10747 10747 10747 10747 10747 10747 10747 10747 10747 10747 10747 10746 10746 10746 10746 10745 10744 10743 10742 10741 10739 10737 10736 10734 10732 10730 10729 10727 10726 10725 10725 10726 10726 10726 10725 10725 10725 10725 10725 10725 10724 10724 10724 10723 10723 10724 10724 10723 10722 10721 10721 10721 10721 10721 10720 10720 10719 10718 10718 10717 10716 10716 10715 10716 10716 10716 10717 10717 10716 10716 10715 10714 10714 10713 10712 10711 10711 10710 10709 10708 10708 10707
10747 10746 10746 10745 10745 10745 10744 10743 10743 10743 10744 10744 10744 10744 10744 10745 10744 10744 10744 10744 10744 10744 10743 10742 10741 10740 10739 10737 10735 10734 10733 10730 10729 10728 10726 10725 10725 10726 10726 10726 10725 10725 10725 10725 10725 10725 10725 10726 10725 10723 10723 10724 10724 10724 10723 10722 10721 10721 10721 10720 10720 10719 10718 10717 10716 10715 10714 10713 10713 10714 10714 10714 10715 10715 10714 10714 10713 10712 10712 10711 10711 10711 10710 10709 10709 10708 10707 10706
10744 10742 10741 10741 10741 10741 10740 10739 10739 10740 10740 10741 10741 10741 10742 10742 10742 10742 10742 10742 10742 10742 10741 10740 10740 10739 10738 10736 10735 10733 10732 10731 10729 10728 10727 10725 10724 10725 10726 10725 10724 10725 10725 10726 10725 10725 10726 10726 10725 10724 10724 10725 10725 10724 10724 10723 10722 10721 10721 10720 10718 10717 10716 10715 10714 10713 10712 10712 10712 10713 10713 10713 10713 10713 10712 10712 10712 10712 10711 10711 10711 10710 10710 10709 10708 10708 10707 10706
10740 10739 10737 10736 10736 10736 10736 10736 10735 10735 10736 10737 10737 10738 10739 10739 10739 10739 10739 10739 10740 10740 10739 10739 10739 10738 10737 10736 10734 10733 10732 10731 10729 10728 10728 10726 10723 10724 10725 10725 10724 10725 10726 10726 10725 10725 10725 10725 10724 10723 10724 10724 10724 10725 10724 10723 10722 10721 10720 10719 10718 10716 10714 10713 10712 10711 10711 10712 10712 10712 10712 10712 10712 10712 10711 10711 10711 10711 10711 10711 10711 10710 10709 10709 10708 10707 10706 10706
10737 10735 10733 10732 10731 10731 10732 10732 10731 10731 10732 10733 10734 10734 10735 10736 10736 10736 10736 10737 10737 10737 10737 10737 10737 10737 10736 10735 10734 10732 10731 10730 10729 10728 10728 10727 10724 10724 10724 10724 10724 10725 10725 10725 10725 10725 10725 10724 10724 10724 10724 10724 10724 10724 10723 10722 10721 10720 10719 10718 10717 10715 10714 10713 10713 10712 10712 10712 10712 10712 10712 10712 10711 10711 10710 10711 10711 10711 10711 10711 10711 10710 10709 10709 10708 10707 10706 10705
10733 10731 10729 10727 10726 10726 10727 10727 10727 10727 10727 10728 10729 10730 10732 10733 10733 10733 10733 10733 10734 10735 10735 10734 10735 10735 10735 10734 10733 10731 10730 10729 10729 10728 10728 10728 10726 10725 10724 10724 10724 10724 10725 10725 10725 10725 10725 10724 10724 10724 10724 10724 10724 10723 10723 10722 10721 10720 10719 10717 10716 10715 10715 10715 10714 10713 10713 10713 10713 10712 10712 10711 10711 10710 10710 10711 10711 10711 10711 10711 10710 10710 10709 10709 10708 10707 10706 10705
10730 10727 10725 10723 10721 10721 10721 10722 10722 10722 10723 10724 10725 10726 10728 10729 10730 10730 10730 10730 10731 10732 10732 10732 10733 10733 10733 10732 10731 10730 10730 10729 10728 10728 10727 10727 10726 10725 10725 10724 10724 10724 10725 10725 10725 10725 10724 10724 10724 10724 10724 10724 10723 10722 10722 10721 10721 10720 10718 10716 10715 10715 10715 10715 10715 10714 10714 10713 10713 10712 10711 10711 10711 10710 10710 10711 10711 10711 10711 10711 10710 10710 10710 10709 10708 10707 10706 10705
10726 10723 10721 10718 10717 10716 10715 10716 10717 10718 10718 10719 10721 10722 10723 10725 10727 10727 10726 10727 10727 10729 10730 10729 10730 10730 10731 10731 10730 10729 10729 10728 10728 10727 10726 10725 10725 10725 10726 10725 10724 10724 10724 10724 10724 10724 10724 10723 10723 10723 10723 10723 10722 10722 10721 10721 10721 10720 10718 10717 10716 10716 10715 10715 10715 10714 10714 10714 10714 10713 10711 10711 10711 10710 10710 10711 10711 10711 10711 10711 10711 10711 10710 10710 10709 10708 10707 10706
10722 10720 10717 10714 10712 10710 10710 10710 10711 10713 10713 10714 10716 10717 10718 10721 10723 10723 10722 10723 10724 10726 10727 10726 10726 10728 10728 10728 10728 10728 10728 10727 10727 10726 10725 10724 10724 10724 10725 10725 10724 10724 10724 10724 10723 10724 10723 10723 10722 10722 10722 10721 10721 10721 10721 10720 10720 10720 10719 10718 10716 10716 10715 10715 10715 10715 10715 10715 10714 10713 10712 10712 10711 10711 10711 10712 10712 10711 10712 10712 10711 10711 10710 10710 10709 10708 10708 10707
10718 10716 10713 10710 10707 10705 10704 10704 10705 10706 10708 10709 10710 10712 10713 10716 10718 10718 10718 10720 10721 10723 10723 10722 10723 10725 10725 10725 10726 10726 10726 10726 10725 10725 10724 10723 10723 10723 10724 10724 10724 10723 10723 10723 10723 10723 10723 10722 10721 10721 10721 10721 10720 10720 10720 10719 10720 10719 10719 10718 10717 10716 10715 10714 10714 10715 10715 10715 10714 10713 10712 10712 10711 10711 10712 10712 10712 10712 10712 10712 10711 10711 10710 10710 10710 10709 10709 10708
10713 10711 10709 10706 10703 10701 10699 10698 10699 10700 10702 10704 10705 10707 10708 10711 10714 10713 10714 10716 10717 10718 10719 10718 10719 10721 10722 10722 10723 10724 10724 10724 10723 10723 10722 10721 10721 10722 10722 10722 10722 10721 10721 10721 10722 10722 10721 10721 10720 10719 10720 10720 10721 10721 10720 10719 10719 10719 10719 10718 10717 10716 10715 10715 10715 10715 10715 10715 10715 10714 10713 10712 10712 10712 10712 10712 10712 10712 10712 10712 10711 10711 10711 10711 10711 10711 10711 10710
10708 10706 10704 10702 10699 10696 10693 10692 10692 10693 10696 10698 10700 10702 10703 10705 10708 10708 10709 10711 10713 10714 10715 10715 10716 10717 10718 10719 10720 10721 10722 10722 10721 10721 10720 10720 10719 10720 10720 10720 10721 10721 10720 10720 10720 10720 10720 10719 10719 10719 10720 10720 10721 10721 10720 10719 10718 10718 10718 10718 10716 10715 10715 10715 10715 10715 10715 10716 10716 10714 10713 10713 10712 10713 10713 10712 10711 10712 10712 10712 10712 10712 10713 10713 10713 10713 10713 10712
10703 10700 10698 10696 10694 10691 10688 10687 10686 10687 10689 10692 10695 10696 10696 10698 10701 10703 10704 10706 10708 10710 10711 10711 10711 10714 10715 10716 10717 10718 10719 10719 10719 10719 10718 10718 10717 10718 10718 10718 10719 10720 10720 10719 10719 10718 10719 10719 10719 10719 10720 10720 10720 10720 10719 10719 10718 10717 10717 10717 10716 10715 10715 10716 10716 10716 10715 10716 10716 10715 10714 10713 10713 10713 10712 10712 10711 10712 10712 10713 10713 10714 10714 10714 10715 10715 10714 10714
10697 10695 10692 10690 10689 10686 10683 10681 10680 10680 10683 10686 10688 10688 10689 10691 10695 10699 10700 10701 10703 10705 10706 10706 10708 10709 10710 10712 10714 10715 10715 10716 10717 10717 10716 10716 10716 10716 10716 10717 10717 10718 10719 10718 10717 10717 10717 10718 10718 10718 10719 10719 10719 10719 10718 10718 10717 10716 10716 10717 10716 10716 10716 10716 10716 10716 10716 10717 10716 10715 10714 10714 10714 10713 10713 10712 10712 10713 10714 10714 10715 10715 10716 10716 10717 10716 10716 10716
10691 10689 10686 10683 10682 10681 10678 10675 10674 10674 10676 10678 10680 10681 10682 10685 10690 10694 10696 10696 10697 10699 10701 10702 10703 10703 10705 10709 10710 10711 10712 10713 10713 10714 10714 10714 10714 10714 10714 10715 10716 10716 10716 10717 10716 10716 10716 10717 10717 10717 10718 10718 10718 10718 10718 10717 10716 10716 10716 10717 10717 10716 10716 10716 10716 10716 10718 10718 10717 10716 10715 10714 10714 10714 10714 10713 10713 10714 10715 10716 10716 10717 10718 10718 10718 10718 10718 10718
10685 10683 10681 10676 10674 10674 10672 10669 10668 10668 10669 10671 10672 10673 10675 10679 10684 10688 10691 10691 10690 10693 10696 10697 10697 10698 10702 10705 10705 10707 10709 10709 10710 10712 10711 10711 10712 10712 10712 10713 10713 10714 10714 10715 10714 10714 10714 10715 10716 10716 10717 10717 10718 10718 10718 10717 10716 10716 10716 10717 10717 10717 10717 10716 10716 10717 10719 10719 10717 10716 10715 10715 10715 10715 10715 10715 10715 10716 10717 10717 10718 10718 10719 10720 10720 10720 10719 10719
10678 10676 10675 10671 10667 10666 10665 10663 10662 10661 10661 10662 10663 10665 10669 10673 10678 10681 10684 10686 10684 10686 10691 10692 10691 10693 10698 10701 10702 10704 10705 10705 10707 10708 10708 10709 10709 10709 10710 10710 10711 10711 10712 10713 10712 10712 10713 10714 10715 10715 10716 10716 10717 10717 10717 10717 10715 10715 10715 10716 10716 10717 10717 10716 10716 10718 10720 10719 10718 10717 10717 10716 10716 10716 10716 10716 10717 10718 10718 10719 10719 10720 10720 10720 10721 10721 10721 10721
10672 10669 10668 10665 10660 10658 10658 10656 10655 10654 10654 10654 10655 10658 10663 10666 10671 10674 10678 10681 10678 10679 10685 10686 10684 10687 10693 10697 10698 10699 10699 10702 10704 10704 10706 10707 10707 10707 10707 10707 10708 10708 10709 10710 10710 10710 10711 10712 10713 10714 10714 10715 10715 10716 10716 10715 10715 10714 10714 10715 10716 10717 10717 10717 10717 10719 10720 10720 10718 10718 10717 10717 10717 10717 10717 10717 10718 10719 10719 10720 10720 10720 10721 10722 10722 10722 10722 10722
10665 10662 10660 10658 10654 10651 10650 10648 10648 10647 10647 10646 10647 10652 10656 10659 10663 10667 10671 10674 10672 10674 10678 10678 10678 10682 10687 10690 10692 10693 10696 10698 10699 10701 10704 10704 10704 10705 10705 10705 10706 10706 10707 10707 10708 10708 10709 10710 10712 10713 10713 10714 10714 10714 10714 10714 10713 10713 10714 10715 10716 10716 10717 10717 10717 10719 10720 10720 10719 10718 10718 10718 10718 10718 10718 10718 10719 10720 10720 10721 10721 10721 10722 10723 10723 10723 10723 10724
10658 10655 10652 10651 10647 10643 10641 10640 10640 10640 10639 10639 10640 10643 10647 10650 10654 10659 10664 10665 10665 10668 10669 10667 10671 10676 10679 10684 10686 10689 10692 10694 10695 10698 10700 10701 10702 10702 10703 10703 10703 10703 10704 10704 10705 10705 10706 10708 10710 10711 10712 10712 10713 10713 10713 10712 10712 10713 10713 10714 10715 10716 10717 10716 10717 10718 10719 10720 10719 10719 10718 10719 10719 10719 10719 10719 10720 10721 10721 10722 10722 10722 10723 10724 10724 10724 10725 10726
10650 10648 10645 10642 10640 10636 10633 10631 10630 10631 10631 10632 10633 10634 10637 10641 10646 10652 10657 10658 10657 10659 10658 10658 10664 10670 10674 10678 10681 10684 10688 10690 10693 10695 10696 10698 10699 10700 10700 10701 10701 10701 10701 10702 10702 10703 10704 10706 10708 10710 10711 10711 10712 10712 10711 10711 10712 10712 10712 10713 10714 10716 10716 10716 10717 10718 10719 10720 10720 10719 10719 10719 10720 10720 10720 10720 10721 10722 10722 10723 10723 10723 10724 10725 10725 10727 10727 10727
10642 10640 10637 10633 10631 10628 10625 10622 10621 10622 10622 10623 10624 10625 10628 10632 10637 10643 10649 10649 10645 10647 10650 10652 10659 10667 10672 10676 10679 10682 10684 10686 10689 10691 10692 10694 10696 10697 10698 10698 10698 10698 10699 10699 10700 10701 10702 10704 10706 10708 10709 10710 10711 10710 10709 10709 10710 10711 10712 10713 10714 10715 10715 10716 10717 10718 10719 10719 10720 10720 10719 10720 10720 10721 10721 10721 10722 10723 10723 10723 10724 10724 10725 10726 10727 10728 10729 10728
10635 10632 10629 10625 10621 10619 10617 10614 10612 10612 10613 10614 10615 10617 10619 10622 10628 10634 10638 10637 10634 10637 10645 10650 10655 10664 10670 10674 10676 10678 10679 10681 10684 10686 10688 10690 10693 10694 10695 10695 10695 10696 10697 10698 10698 10699 10700 10702 10704 10706 10707 10707 10708 10708 10708 10709 10710 10710 10710 10712 10713 10714 10715 10716 10717 10717 10718 10719 10720 10720 10720 10720 10721 10721 10721 10722 10722 10723 10724 10724 10725 10725 10726 10727 10728 10729 10729 10729
10626 10624 10621 10616 10612 10609 10607 10605 10604 10603 10603 10604 10606 10608 10610 10613 10619 10623 10625 10626 10625 10629 10639 10645 10650 10658 10664 10667 10668 10670 10673 10676 10679 10681 10683 10686 10689 10690 10692 10693 10693 10693 10694 10695 10696 10697 10698 10700 10702 10703 10704 10705 10706 10706 10706 10708 10708 10708 10709 10710 10713 10714 10715 10716 10716 10717 10718 10719 10719 10719 10720 10721 10721 10721 10722 10722 10723 10723 10724 10725 10725 10726 10727 10728 10729 10730 10730 10729
10618 10615 10612 10607 10602 10599 10598 10596 10595 10594 10594 10594 10596 10598 10601 10604 10608 10610 10613 10616 10616 10620 10631 10638 10643 10650 10655 10656 10658 10661 10665 10669 10673 10677 10679 10682 10685 10686 10688 10689 10690 10691 10691 10692 10693 10694 10696 10697 10699 10701 10702 10703 10703 10704 10705 10707 10707 10707 10708 10709 10711 10713 10714 10715 10716 10716 10718 10719 10719 10719 10720 10721 10721 10721 10722 10723 10723 10723 10724 10725 10725 10726 10728 10729 10730 10730 10730 10729
10609 10606 10602 10597 10592 10589 10588 10587 10585 10584 10584 10584 10585 10588 10591 10593 10595 10598 10602 10605 10607 10614 10625 10631 10636 10643 10646 10647 10650 10654 10658 10662 10666 10672 10675 10678 10680 10682 10684 10685 10687 10688 10688 10689 10690 10692 10693 10695 10697 10699 10700 10701 10702 10703 10705 10706 10706 10707 10707 10709 10710 10712 10713 10714 10715 10716 10717 10718 10719 10720 10720 10721 10721 10722 10723 10723 10724 10724 10724 10725 10726 10727 10728 10729 10729 10729 10730 10730
10600 10597 10592 10587 10582 10579 10577 10576 10575 10574 10574 10574 10575 10577 10580 10582 10584 10587 10591 10595 10599 10606 10615 10621 10627 10633 10635 10638 10643 10649 10654 10656 10660 10665 10670 10673 10676 10678 10680 10682 10684 10685 10685 10686 10687 10689 10690 10692 10694 10696 10698 10700 10701 10702 10704 10705 10705 10706 10707 10708 10710 10711 10712 10714 10715 10715 10716 10717 10719 10720 10721 10721 10721 10722 10723 10724 10724 10724 10725 10726 10727 10728 10729 10729 10729 10729 10730 10730
10591 10587 10582 10576 10572 10569 10567 10565 10564 10564 10564 10564 10565 10566 10569 10571 10573 10576 10580 10584 10590 10597 10604 10611 10617 10622 10627 10631 10637 10644 10649 10651 10655 10662 10666 10670 10672 10674 10675 10676 10678 10680 10681 10683 10684 10686 10688 10690 10692 10694 10696 10698 10700 10701 10702 10703 10703 10704 10706 10707 10708 10710 10711 10713 10714 10715 10715 10717 10718 10720 10721 10721 10722 10723 10723 10724 10724 10725 10725 10726 10727 10728 10729 10729 10729 10729 10730 10730
10582 10577 10571 10565 10561 10559 10556 10554 10553 10553 10553 10553 10554 10555 10558 10560 10562 10565 10568 10573 10580 10588 10596 10603 10609 10615 10620 10626 10631 10637 10642 10646 10653 10660 10664 10668 10669 10667 10667 10668 10671 10673 10675 10678 10680 10683 10685 10687 10689 10691 10693 10696 10698 10699 10700 10701 10701 10702 10703 10705 10706 10708 10710 10711 10713 10714 10715 10716 10717 10719 10720 10721 10722 10723 10724 10724 10725 10726 10726 10727 10727 10728 10728 10729 10729 10729 10729 10730
10571 10567 10560 10554 10550 10547 10545 10543 10542 10542 10542 10542 10543 10544 10547 10549 10552 10554 10558 10564 10573 10583 10590 10596 10603 10610 10615 10620 10625 10631 10636 10641 10648 10653 10657 10660 10659 10656 10657 10659 10662 10665 10668 10672 10676 10680 10682 10683 10685 10688 10690 10693 10695 10697 10698 10699 10699 10700 10702 10703 10705 10707 10709 10710 10711 10713 10715 10716 10717 10718 10720 10721 10722 10723 10724 10725 10726 10727 10728 10727 10727 10728 10728 10728 10729 10729 10729 10729
10559 10555 10550 10544 10539 10536 10534 10533 10531 10530 10531 10531 10533 10534 10536 10539 10541 10543 10549 10559 10568 10577 10583 10589 10596 10604 10611 10615 10620 10625 10631 10636 10642 10646 10648 10650 10648 10650 10655 10659 10661 10664 10667 10670 10673 10676 10678 10680 10682 10684 10687 10690 10693 10695 10696 10697 10698 10699 10700 10702 10704 10706 10708 10709 10710 10712 10714 10715 10716 10717 10719 10720 10722 10723 10724 10725 10726 10727 10728 10728 10728 10727 10727 10727 10728 10729 10729 10729
10547 10543 10539 10535 10530 10526 10524 10522 10521 10519 10519 10520 10522 10524 10525 10526 10528 10533 10541 10551 10559 10566 10573 10580 10589 10597 10604 10610 10615 10621 10627 10631 10635 10639 10642 10643 10645 10650 10657 10663 10666 10669 10671 10673 10673 10674 10676 10677 10678 10681 10683 10687 10690 10692 10694 10695 10696 10697 10699 10701 10703 10705 10707 10708 10709 10710 10712 10713 10714 10715 10717 10719 10721 10722 10724 10725 10726 10726 10727 10727 10727 10727 10727 10727 10728 10729 10729 10729
10535 10531 10528 10525 10521 10517 10513 10511 10510 10508 10508 10509 10510 10511 10511 10513 10516 10523 10531 10539 10547 10554 10563 10571 10580 10587 10595 10603 10608 10615 10621 10624 10628 10632 10636 10639 10642 10648 10654 10660 10665 10668 10671 10674 10674 10673 10673 10674 10676 10679 10681 10684 10686 10688 10690 10692 10694 10696 10697 10699 10701 10703 10705 10706 10707 10708 10710 10711 10712 10714 10715 10717 10720 10721 10723 10724 10724 10725 10726 10726 10726 10727 10727 10727 10727 10727 10728 10728
10525 10520 10516 10514 10511 10508 10504 10500 10498 10498 10497 10497 10498 10498 10499 10501 10506 10513 10520 10528 10536 10544 10552 10561 10568 10575 10584 10592 10599 10606 10613 10617 10621 10627 10631 10634 10638 10643 10647 10653 10657 10662 10668 10672 10673 10672 10673 10674 10676 10678 10679 10681 10682 10684 10687 10690 10692 10694 10696 10698 10699 10701 10703 10705 10706 10707 10708 10709 10711 10712 10714 10716 10718 10720 10721 10722 10723 10723 10724 10725 10725 10726 10727 10727 10727 10726 10726 10726
10516 10510 10507 10504 10500 10498 10495 10490 10487 10487 10488 10487 10487 10488 10489 10492 10497 10504 10512 10520 10528 10535 10543 10550 10557 10565 10574 10582 10589 10596 10604 10610 10615 10621 10625 10629 10633 10636 10640 10645 10651 10657 10664 10668 10669 10671 10673 10673 10674 10676 10678 10679 10681 10682 10685 10688 10691 10692 10694 10696 10698 10700 10702 10703 10704 10705 10707 10708 10709 10711 10713 10715 10717 10718 10720 10720 10721 10721 10722 10723 10724 10725 10726 10726 10726 10725 10725 10725
10506 10500 10497 10494 10490 10488 10485 10482 10478 10478 10478 10478 10479 10480 10482 10485 10490 10499 10506 10513 10520 10527 10534 10541 10548 10556 10564 10572 10580 10587 10594 10602 10607 10613 10619 10624 10627 10630 10633 10639 10646 10652 10658 10662 10665 10668 10669 10670 10671 10673 10675 10677 10679 10681 10683 10686 10688 10690 10692 10693 10695 10698 10700 10701 10702 10704 10705 10706 10708 10709 10711 10714 10715 10717 10718 10719 10719 10720 10720 10721 10722 10723 10724 10724 10724 10724 10724 10724
10496 10489 10485 10484 10482 10478 10476 10473 10472 10470 10470 10470 10471 10472 10474 10478 10484 10493 10500 10506 10513 10519 10526 10533 10541 10548 10555 10562 10570 10577 10585 10594 10599 10606 10613 10617 10620 10624 10627 10633 10641 10647 10653 10657 10660 10662 10664 10665 10667 10669 10671 10673 10675 10677 10680 10682 10684 10687 10689 10691 10693 10695 10697 10698 10700 10701 10703 10704 10706 10707 10709 10712 10714 10715 10716 10717 10718 10718 10719 10719 10720 10721 10722 10722 10722 10723 10723 10723
10488 10481 10475 10472 10472 10470 10467 10465 10464 10463 10462 10462 10463 10465 10468 10471 10478 10487 10493 10498 10504 10511 10518 10525 10533 10540 10546 10552 10560 10567 10576 10585 10591 10598 10605 10609 10614 10618 10622 10628 10636 10642 10646 10650 10653 10656 10658 10661 10664 10666 10668 10670 10671 10674 10677 10679 10682 10684 10686 10689 10690 10692 10693 10695 10696 10698 10700 10702 10703 10705 10707 10710 10712 10713 10714 10716 10717 10717 10717 10718 10719 10720 10720 10720 10721 10721 10722 10721
10480 10475 10467 10463 10461 10460 10459 10458 10457 10456 10456 10456 10457 10459 10462 10466 10473 10480 10485 10488 10494 10502 10509 10517 10524 10531 10537 10544 10552 10559 10568 10576 10583 10590 10597 10602 10608 10613 10616 10621 10629 10635 10639 10643 10646 10649 10653 10657 10662 10665 10666 10667 10669 10672 10674 10676 10679 10681 10683 10686 10687 10688 10690 10691 10693 10694 10697 10699 10701 10702 10704 10707 10709 10711 10712 10714 10716 10716 10716 10717 10718 10718 10718 10718 10719 10719 10720 10719
10471 10467 10461 10455 10452 10450 10450 10451 10450 10450 10450 10451 10452 10453 10457 10461 10467 10473 10477 10480 10486 10493 10500 10507 10514 10521 10528 10535 10544 10552 10561 10569 10576 10582 10589 10594 10600 10605 10610 10615 10622 10628 10632 10636 10640 10644 10648 10653 10658 10661 10663 10665 10667 10668 10670 10672 10675 10677 10680 10682 10683 10685 10686 10688 10689 10691 10694 10697 10698 10699 10702 10704 10707 10708 10710 10712 10714 10715 10714 10715 10716 10716 10716 10716 10716 10717 10717 10717
10462 10458 10453 10449 10445 10442 10442 10442 10443 10445 10445 10446 10446 10448 10450 10454 10459 10464 10469 10472 10477 10484 10491 10497 10504 10511 10518 10526 10536 10545 10553 10560 10567 10573 10580 10587 10592 10597 10603 10608 10615 10621 10626 10630 10635 10638 10643 10649 10653 10656 10658 10661 10663 10665 10667 10670 10673 10675 10677 10679 10680 10681 10682 10684 10686 10689 10691 10694 10695 10697 10699 10701 10704 10706 10707 10709 10712 10712 10712 10712 10713 10714 10714 10714 10714 10714 10715 10716
10454 10449 10445 10441 10438 10436 10435 10435 10437 10439 10440 10440 10440 10442 10444 10448 10452 10456 10460 10464 10468 10473 10480 10487 10493 10501 10510 10518 10527 10536 10544 10552 10559 10565 10572 10579 10584 10590 10596 10601 10607 10613 10618 10624 10630 10633 10637 10643 10648 10651 10654 10658 10661 10664 10667 10670 10671 10673 10674 10675 10676 10677 10679 10681 10683 10686 10689 10691 10693 10695 10697 10699 10701 10703 10705 10707 10709 10710 10710 10710 10711 10711 10712 10711 10711 10712 10713 10714
10446 10441 10436 10433 10431 10430 10428 10429 10430 10432 10434 10434 10435 10437 10439 10442 10446 10448 10452 10456 10458 10462 10469 10476 10484 10493 10503 10511 10519 10528 10535 10543 10551 10557 10564 10571 10576 10582 10589 10594 10600 10606 10612 10618 10625 10628 10632 10637 10642 10646 10651 10655 10658 10661 10664 10665 10667 10668 10670 10671 10672 10674 10677 10679 10680 10682 10686 10688 10691 10693 10694 10696 10699 10701 10702 10704 10706 10707 10708 10708 10709 10709 10709 10708 10708 10709 10711 10712